一网星座-0063星 (ONEWEB-0063 )

导读 | 星芒AI

ONEWEB-0063 是 OneWeb 卫星星座计划中的一颗低轨通信卫星,旨在为全球提供高速互联网服务。该卫星由阿丽亚娜集团制造,搭载先进通信载荷,支持宽带接入和数据传输。作为 OneWeb 扩展其全球覆盖网络的一部分,ONEWEB-0063 于近期成功发射并进入预定轨道,加入其在近地轨道的卫星群。该星座致力于弥合数字鸿沟,为偏远和农村地区提供稳定、高效的互联网连接,推动全球通信基础设施的发展。

基本信息
目录编号:
45448
目录名称:
ONEWEB-0063
国际标识:
2020-020AA
轨道中心:
EARTH
卫星名称:
一网星座-0063星
卫星全名:
一网星座-0063星 (ONEWEB-0063 )
卫星状态:
在轨 (已飞行2093 天)
发射日期:
2020-03-21 UTC
国别 :
英国 (GB)
星等 :
--
轨道信息
数据来源 国际轨道数据 AOE轨道数据
星历时间 2025-12-13T06:24:07+0800
11小时前
查看轨道信息
2025-12-09T12:00:00+0800
4天前
查看轨道信息
半长轴 7595.835km 7595.824km
偏心率 0.0001714 0.0001647
轨道倾角 87.887° 87.888°
近地点辐角 110.898° 109.587°
升交点赤经 58.146° 58.897°
平近点角 249.233° 117.479°
近地点 1216.398km 1216.437km
远地点 1219.002km 1218.941km
周期 109.805分钟 109.805分钟
每日圈数 13.114131 13.114159
详细信息
平衡模式:
三轴稳定
覆盖范围:
全球
运营商:
一网卫星公司
运营商所在国:
英国
制造商(研发单位):
一网卫星公司
制造商所在国:
英国
使用方式:
暂无
卫星简介
OneWeb卫星网络由648颗重约125公斤的微型卫星组成,运行在1200公里的轨道上。 每颗卫星都能够提供至少每秒8千兆位的吞吐量,以使用其高吞吐量的Ku频段有效载荷为家庭和移动平台提供互联网接入。该卫星仍在工作。
2D轨道图
3D轨道图
轨道高度分析图
轨道倾角分析图
轨道综合分析图
查看轨道综合分析图